Regional Weather Roundup
Issued by NWS

Home | Current Version | Previous Version | Graphics & Text | Print | Product List | Glossary On
Versions: 1 2 3 4 5 6 7 8 9 10 11 12 13 14 15 16 17 18 19 20 21 22 23 24 25 26 27 28 29 30 31 32 33 34 35 36 37 38 39 40 41 42 43 44 45 46 47 48 49 50
000
ASUS45 KBOI 291610
RWRID

IDAHO REGIONAL WEATHER ROUNDUP
NATIONAL WEATHER SERVICE BOISE ID
1000 AM MDT FRI MAY 29 2015

NOTE: "FAIR" INDICATES FEW OR NO CLOUDS BELOW 12000 FEET
WITH NO SIGNIFICANT WEATHER AND/OR OBSTRUCTIONS TO VISIBILITY

IDZ012-014-291700-
SOUTHWEST IDAHO


CITY           SKY/WX    TMP DP  RH WIND       PRES   REMARKS
BOISE          SUNNY     71  46  40 E8        30.11S
CALDWELL       SUNNY     72  45  37 S16       30.11S
MOUNTAIN HOME  SUNNY     69  47  44 E23G30    30.11F
$$

IDZ016-017-291700-
SOUTHCENTRAL IDAHO


CITY           SKY/WX    TMP DP  RH WIND       PRES   REMARKS
BURLEY         SUNNY     63  49  60 NE9       30.19S
JEROME         SUNNY     65  45  48 NE18      30.18F
TWIN FALLS     SUNNY     65  49  56 NE10      30.16S
$$

IDZ019>023-291700-
SOUTHEAST IDAHO


CITY           SKY/WX    TMP DP  RH WIND       PRES   REMARKS
IDAHO FALLS    SUNNY     58  43  57 N9        30.24S
POCATELLO      MOSUNNY   60  47  61 N5        30.24S
REXBURG        SUNNY     54  43  66 VRB5      30.25S
$$

IDZ006-010-011-018-031-032-291700-
CENTRAL IDAHO MOUNTAINS


CITY           SKY/WX    TMP DP  RH WIND       PRES   REMARKS
MCCALL         MOSUNNY   59  43  55 CALM      30.18F
HAILEY         MOSUNNY   57  45  62 NW5       30.27S
STANLEY          N/A     52  39  61 N5        30.28F
SALMON         PTSUNNY   55  45  67 CALM      30.20F
CHALLIS        SUNNY     56  43  61 VRB3      30.24F
$$

IDZ002-004-006-007-026-291700-
NORTHERN IDAHO


CITY           SKY/WX    TMP DP  RH WIND       PRES   REMARKS
LEWISTON       SUNNY     69  51  52 NE9       30.02F
LOWELL           N/A     61  51  70 N3        30.09F
COEUR D`ALENE  MOSUNNY   63  54  72 NE13      30.07F
MULLAN PASS    MOSUNNY   48  43  82 SE8       30.19F
$$



USA.gov is the U.S. government's official web portal to all federal, state and local government web resources and services.